Year,Month,Day,Hour,Minute,Value (Times are PST for windspeed in km/hr)
2014,01,10,00,00,10.20
2014,01,10,00,01,6.60
2014,01,10,00,02,12.60
2014,01,10,00,03,11.10
2014,01,10,00,04,10.40
2014,01,10,00,05,9.50
2014,01,10,00,06,6.80
2014,01,10,00,07,6.80
2014,01,10,00,08,6.40
2014,01,10,00,09,10.80
2014,01,10,00,10,6.90
2014,01,10,00,11,12.90
2014,01,10,00,12,8.50
2014,01,10,00,13,13.60
2014,01,10,00,17,6.80
2014,01,10,00,18,11.70
2014,01,10,00,19,12.20
2014,01,10,00,20,7.20
2014,01,10,00,21,9.30
2014,01,10,00,22,11.10
2014,01,10,00,23,8.70
2014,01,10,00,24,7.30
2014,01,10,00,25,10.10
2014,01,10,00,26,9.20
2014,01,10,00,27,5.30
2014,01,10,00,28,7.30
2014,01,10,00,29,4.50
2014,01,10,00,30,4.70
2014,01,10,00,31,6.40
2014,01,10,00,32,7.80
2014,01,10,00,33,13.80
2014,01,10,00,34,9.10
2014,01,10,00,35,14.80
2014,01,10,00,36,14.20
2014,01,10,00,37,12.60
2014,01,10,00,38,7.30
2014,01,10,00,39,8.10
2014,01,10,00,40,5.00
2014,01,10,00,41,9.80
2014,01,10,00,42,8.00
2014,01,10,00,43,12.20
2014,01,10,00,44,11.00
2014,01,10,00,45,10.10
2014,01,10,00,46,11.00
2014,01,10,00,47,12.20
2014,01,10,00,48,4.30
2014,01,10,00,49,8.90
2014,01,10,00,50,7.90
2014,01,10,00,51,4.30
2014,01,10,00,52,4.40
2014,01,10,00,53,6.30
2014,01,10,00,54,8.50
2014,01,10,00,55,6.70
2014,01,10,00,56,9.30
2014,01,10,00,57,8.30
2014,01,10,00,58,6.00
2014,01,10,00,59,4.70
2014,01,10,01,00,6.40
2014,01,10,01,01,12.30
2014,01,10,01,02,10.10
2014,01,10,01,03,3.10
2014,01,10,01,04,1.80
2014,01,10,01,05,13.10
2014,01,10,01,06,18.00
2014,01,10,01,07,7.90
2014,01,10,01,08,10.90
2014,01,10,01,09,9.90
2014,01,10,01,10,13.30
2014,01,10,01,11,13.60
2014,01,10,01,12,8.00
2014,01,10,01,13,15.30
2014,01,10,01,14,11.70
2014,01,10,01,15,13.00
2014,01,10,01,16,12.10
2014,01,10,01,17,7.20
2014,01,10,01,18,3.60
2014,01,10,01,19,7.70
2014,01,10,01,20,6.80
2014,01,10,01,21,12.30
2014,01,10,01,22,9.30
2014,01,10,01,23,5.60
2014,01,10,01,24,4.30
2014,01,10,01,25,10.00
2014,01,10,01,26,6.90
2014,01,10,01,27,2.30
2014,01,10,01,28,6.70
2014,01,10,01,29,17.00
2014,01,10,01,30,2.30
2014,01,10,01,31,8.20
2014,01,10,01,32,4.80
2014,01,10,01,33,14.80
2014,01,10,01,34,7.10
2014,01,10,01,35,13.90
2014,01,10,01,36,7.80
2014,01,10,01,37,10.10
2014,01,10,01,38,11.50
2014,01,10,01,39,12.60
2014,01,10,01,40,9.60
2014,01,10,01,41,13.60
2014,01,10,01,42,16.50
2014,01,10,01,43,9.70
2014,01,10,01,44,6.40
2014,01,10,01,45,7.30
2014,01,10,01,46,9.60
2014,01,10,01,47,7.30
2014,01,10,01,48,7.10
2014,01,10,01,49,4.40
2014,01,10,01,50,8.10
2014,01,10,01,51,4.00
2014,01,10,01,52,6.40
2014,01,10,01,53,6.10
2014,01,10,01,54,9.70
2014,01,10,01,55,8.20
2014,01,10,01,56,7.30
2014,01,10,01,57,7.60
2014,01,10,01,58,7.60
2014,01,10,01,59,7.70
2014,01,10,02,00,3.20
2014,01,10,02,01,5.70
2014,01,10,02,02,4.60
2014,01,10,02,03,7.40
2014,01,10,02,04,11.80
2014,01,10,02,05,8.00
2014,01,10,02,06,6.50
2014,01,10,02,07,4.10
2014,01,10,02,08,12.10
2014,01,10,02,09,12.90
2014,01,10,02,10,6.80
2014,01,10,02,11,6.80
2014,01,10,02,12,3.70
2014,01,10,02,13,5.50
2014,01,10,02,14,3.10
2014,01,10,02,15,9.10
2014,01,10,02,16,17.30
2014,01,10,02,17,11.00
2014,01,10,02,18,10.50
2014,01,10,02,19,9.40
2014,01,10,02,20,19.00
2014,01,10,02,21,8.10
2014,01,10,02,22,6.00
2014,01,10,02,23,14.60
2014,01,10,02,24,8.60
2014,01,10,02,25,8.10
2014,01,10,02,26,9.50
2014,01,10,02,27,6.90
2014,01,10,02,28,6.40
2014,01,10,02,29,4.90
2014,01,10,02,30,6.80
2014,01,10,02,31,12.10
2014,01,10,02,32,7.50
2014,01,10,02,33,6.20
2014,01,10,02,34,5.20
2014,01,10,02,35,3.00
2014,01,10,02,36,7.70
2014,01,10,02,37,8.70
2014,01,10,02,38,6.50
2014,01,10,02,39,11.50
2014,01,10,02,40,3.80
2014,01,10,02,41,4.10
2014,01,10,02,42,8.40
2014,01,10,02,43,6.60
2014,01,10,02,44,5.00
2014,01,10,02,45,5.70
2014,01,10,02,46,10.20
2014,01,10,02,47,14.90
2014,01,10,02,48,7.50
2014,01,10,02,49,10.90
2014,01,10,02,50,9.40
2014,01,10,02,51,9.50
2014,01,10,02,52,6.20
2014,01,10,02,53,6.40
2014,01,10,02,54,7.30
2014,01,10,02,55,5.80
2014,01,10,02,56,5.60
2014,01,10,02,57,5.80
2014,01,10,02,58,12.60
2014,01,10,02,59,10.70
2014,01,10,03,00,9.40
2014,01,10,03,01,6.80
2014,01,10,03,02,5.60
2014,01,10,03,03,6.10
2014,01,10,03,04,2.70
2014,01,10,03,05,4.80
2014,01,10,03,06,7.00
2014,01,10,03,07,8.80
2014,01,10,03,08,8.10
2014,01,10,03,09,6.70
2014,01,10,03,10,8.80
2014,01,10,03,11,5.30
2014,01,10,03,12,5.00
2014,01,10,03,13,7.20
2014,01,10,03,14,3.30
2014,01,10,03,15,4.70
2014,01,10,03,16,8.40
2014,01,10,03,17,10.70
2014,01,10,03,18,5.60
2014,01,10,03,19,1.50
2014,01,10,03,20,5.20
2014,01,10,03,21,9.30
2014,01,10,03,22,6.60
2014,01,10,03,23,8.00
2014,01,10,03,24,11.70
2014,01,10,03,25,10.10
2014,01,10,03,26,7.10
2014,01,10,03,27,7.00
2014,01,10,03,28,5.40
2014,01,10,03,29,5.80
2014,01,10,03,30,9.30
2014,01,10,03,31,11.00
2014,01,10,03,32,10.10
2014,01,10,03,33,6.40
2014,01,10,03,34,12.60
2014,01,10,03,35,12.80
2014,01,10,03,36,6.80
2014,01,10,03,37,8.40
2014,01,10,03,38,3.50
2014,01,10,03,39,11.00
2014,01,10,03,40,7.00
2014,01,10,03,41,6.40
2014,01,10,03,42,13.40
2014,01,10,03,43,12.80
2014,01,10,03,44,9.70
2014,01,10,03,45,5.70
2014,01,10,03,46,8.70
2014,01,10,03,47,4.70
2014,01,10,03,48,5.60
2014,01,10,03,49,4.50
2014,01,10,03,50,14.10
2014,01,10,03,51,10.10
2014,01,10,03,52,8.00
2014,01,10,03,53,6.10
2014,01,10,03,54,13.00
2014,01,10,03,55,6.00
2014,01,10,03,56,10.80
2014,01,10,03,57,10.50
2014,01,10,03,58,9.50
2014,01,10,03,59,14.20
2014,01,10,04,00,9.20
2014,01,10,04,01,8.60
2014,01,10,04,02,8.10
2014,01,10,04,03,8.40
2014,01,10,04,04,12.60
2014,01,10,04,05,7.30
2014,01,10,04,06,6.70
2014,01,10,04,07,6.80
2014,01,10,04,08,6.70
2014,01,10,04,09,10.30
2014,01,10,04,10,9.80
2014,01,10,04,11,8.20
2014,01,10,04,12,9.50
2014,01,10,04,13,5.10
2014,01,10,04,14,7.80
2014,01,10,04,15,4.70
2014,01,10,04,16,9.30
2014,01,10,04,17,5.90
2014,01,10,04,18,9.60
2014,01,10,04,19,8.60
2014,01,10,04,20,10.70
2014,01,10,04,21,10.60
2014,01,10,04,22,5.00
2014,01,10,04,23,5.00
2014,01,10,04,24,5.10
2014,01,10,04,25,6.00
2014,01,10,04,26,14.50
2014,01,10,04,27,6.30
2014,01,10,04,28,8.50
2014,01,10,04,29,14.80
2014,01,10,04,30,14.20
2014,01,10,04,31,8.30
2014,01,10,04,32,5.80
2014,01,10,04,33,9.00
2014,01,10,04,34,8.80
2014,01,10,04,35,6.80
2014,01,10,04,36,10.90
2014,01,10,04,37,8.80
2014,01,10,04,38,6.30
2014,01,10,04,39,8.70
2014,01,10,04,40,5.50
2014,01,10,04,41,7.10
2014,01,10,04,42,8.70
2014,01,10,04,43,8.90
2014,01,10,04,44,9.90
2014,01,10,04,45,9.90
2014,01,10,04,46,8.70
2014,01,10,04,47,11.20
2014,01,10,04,48,6.90
2014,01,10,04,49,10.50
2014,01,10,04,50,10.90
2014,01,10,04,51,10.20
2014,01,10,04,52,6.30
2014,01,10,04,53,7.60
2014,01,10,04,54,5.80
2014,01,10,04,55,3.60
2014,01,10,04,56,14.60
2014,01,10,04,57,9.40
2014,01,10,04,58,12.40
2014,01,10,04,59,7.10
2014,01,10,05,00,6.50
2014,01,10,05,01,4.80
2014,01,10,05,02,5.10
2014,01,10,05,03,7.80
2014,01,10,05,04,3.70
2014,01,10,05,05,6.10
2014,01,10,05,06,8.80
2014,01,10,05,07,3.80
2014,01,10,05,08,4.90
2014,01,10,05,09,9.70
2014,01,10,05,10,7.00
2014,01,10,05,11,6.00
2014,01,10,05,12,7.40
2014,01,10,05,13,6.40
2014,01,10,05,14,3.50
2014,01,10,05,15,5.80
2014,01,10,05,16,6.20
2014,01,10,05,17,7.80
2014,01,10,05,18,10.90
2014,01,10,05,19,13.50
2014,01,10,05,20,5.30
2014,01,10,05,21,3.20
2014,01,10,05,22,4.10
2014,01,10,05,23,2.50
2014,01,10,05,24,10.30
2014,01,10,05,25,10.20
2014,01,10,05,26,4.40
2014,01,10,05,27,1.70
2014,01,10,05,28,3.30
2014,01,10,05,29,2.00
2014,01,10,05,30,3.60
2014,01,10,05,31,7.40
2014,01,10,05,32,8.00
2014,01,10,05,33,5.10
2014,01,10,05,34,3.00
2014,01,10,05,35,2.90
2014,01,10,05,36,4.30
2014,01,10,05,37,4.30
2014,01,10,05,38,8.20
2014,01,10,05,39,5.80
2014,01,10,05,40,3.40
2014,01,10,05,41,3.90
2014,01,10,05,42,14.60
2014,01,10,05,43,10.10
2014,01,10,05,44,2.50
2014,01,10,05,45,4.90
2014,01,10,05,46,12.80
2014,01,10,05,47,8.80
2014,01,10,05,48,11.90
2014,01,10,05,49,15.50
2014,01,10,05,50,11.40
2014,01,10,05,51,11.40
2014,01,10,05,52,5.60
2014,01,10,05,53,7.50
2014,01,10,05,54,9.60
2014,01,10,05,55,6.00
2014,01,10,05,56,3.90
2014,01,10,05,57,5.70
2014,01,10,05,58,8.50
2014,01,10,05,59,6.70
2014,01,10,06,00,6.50
2014,01,10,06,01,1.60
2014,01,10,06,02,6.10
2014,01,10,06,03,5.80
2014,01,10,06,04,1.20
2014,01,10,06,05,2.70
2014,01,10,06,06,4.30
2014,01,10,06,07,6.90
2014,01,10,06,08,4.70
2014,01,10,06,09,3.60
2014,01,10,06,10,4.50
2014,01,10,06,11,1.60
2014,01,10,06,12,3.10
2014,01,10,06,13,1.80
2014,01,10,06,14,1.10
2014,01,10,06,15,1.30
2014,01,10,06,16,3.40
2014,01,10,06,17,0.20
2014,01,10,06,18,4.90
2014,01,10,06,19,2.00
2014,01,10,06,20,1.10
2014,01,10,06,21,0.60
2014,01,10,06,22,0.00
2014,01,10,06,23,0.50
2014,01,10,06,24,1.50
2014,01,10,06,25,1.50
2014,01,10,06,26,1.50
2014,01,10,06,27,4.10
2014,01,10,06,28,1.80
2014,01,10,06,29,4.50
2014,01,10,06,30,2.60
2014,01,10,06,31,3.20
2014,01,10,06,32,6.00
2014,01,10,06,33,9.40
2014,01,10,06,34,5.30
2014,01,10,06,35,2.30
2014,01,10,06,36,4.30
2014,01,10,06,37,3.90
2014,01,10,06,38,5.10
2014,01,10,06,39,7.20
2014,01,10,06,40,6.40
2014,01,10,06,41,2.30
2014,01,10,06,42,1.00
2014,01,10,06,43,4.20
2014,01,10,06,44,7.60
2014,01,10,06,45,6.00
2014,01,10,06,46,5.00
2014,01,10,06,47,5.20
2014,01,10,06,48,1.70
2014,01,10,06,49,4.50
2014,01,10,06,50,9.10
2014,01,10,06,51,5.00
2014,01,10,06,52,5.20
2014,01,10,06,53,0.20
2014,01,10,06,54,1.70
2014,01,10,06,55,9.30
2014,01,10,06,56,9.60
2014,01,10,06,57,6.40
2014,01,10,06,58,5.10
2014,01,10,06,59,0.20
2014,01,10,07,00,2.50
2014,01,10,07,01,8.70
2014,01,10,07,02,5.60
2014,01,10,07,03,1.60
2014,01,10,07,04,2.80
2014,01,10,07,05,3.20
2014,01,10,07,06,3.90
2014,01,10,07,07,8.20
2014,01,10,07,08,7.20
2014,01,10,07,09,4.60
2014,01,10,07,10,10.20
2014,01,10,07,11,4.70
2014,01,10,07,12,3.50
2014,01,10,07,13,3.00
2014,01,10,07,14,3.10
2014,01,10,07,15,1.70
2014,01,10,07,16,6.00
2014,01,10,07,17,3.50
2014,01,10,07,18,5.40
2014,01,10,07,19,3.20
2014,01,10,07,20,1.20
2014,01,10,07,21,1.00
2014,01,10,07,22,1.40
2014,01,10,07,23,0.70
2014,01,10,07,24,5.30
2014,01,10,07,25,7.10
2014,01,10,07,26,1.10
2014,01,10,07,27,1.70
2014,01,10,07,28,1.10
2014,01,10,07,29,2.00
2014,01,10,07,30,4.10
2014,01,10,07,31,0.10
2014,01,10,07,32,3.70
2014,01,10,07,33,4.80
2014,01,10,07,34,8.40
2014,01,10,07,35,5.40
2014,01,10,07,36,1.90
2014,01,10,07,37,1.30
2014,01,10,07,38,2.80
2014,01,10,07,39,2.00
2014,01,10,07,40,1.50
2014,01,10,07,41,3.20
2014,01,10,07,42,1.90
2014,01,10,07,43,2.30
2014,01,10,07,44,1.90
2014,01,10,07,45,0.70
2014,01,10,07,46,0.60
2014,01,10,07,47,1.80
2014,01,10,07,48,3.90
2014,01,10,07,49,2.30
2014,01,10,07,50,0.60
2014,01,10,07,51,1.80
2014,01,10,07,52,0.20
2014,01,10,07,53,2.70
2014,01,10,07,54,5.90
2014,01,10,07,55,3.60
2014,01,10,07,56,5.10
2014,01,10,07,57,0.50
2014,01,10,07,58,0.00
2014,01,10,07,59,1.40
2014,01,10,08,00,1.20
2014,01,10,08,01,4.80
2014,01,10,08,02,4.70
2014,01,10,08,03,6.40
2014,01,10,08,04,3.80
2014,01,10,08,05,6.10
2014,01,10,08,06,5.90
2014,01,10,08,07,4.30
2014,01,10,08,08,7.00
2014,01,10,08,09,5.30
2014,01,10,08,10,4.40
2014,01,10,08,11,6.50
2014,01,10,08,12,6.20
2014,01,10,08,13,9.40
2014,01,10,08,14,4.00
2014,01,10,08,15,3.90
2014,01,10,08,16,5.10
2014,01,10,08,17,2.30
2014,01,10,08,18,5.60
2014,01,10,08,19,1.80
2014,01,10,08,20,2.50
2014,01,10,08,21,3.70
2014,01,10,08,22,4.10
2014,01,10,08,23,4.70
2014,01,10,08,24,1.40
2014,01,10,08,25,6.00
2014,01,10,08,26,3.40
2014,01,10,08,27,3.60
2014,01,10,08,28,7.10
2014,01,10,08,29,6.10
2014,01,10,08,30,4.80
2014,01,10,08,31,2.20
2014,01,10,08,32,2.30
2014,01,10,08,33,0.00
2014,01,10,08,34,2.70
2014,01,10,08,35,3.60
2014,01,10,08,36,3.30
2014,01,10,08,37,4.60
2014,01,10,08,38,3.80
2014,01,10,08,39,3.10
2014,01,10,08,40,4.20
2014,01,10,08,41,2.50
2014,01,10,08,42,0.50
2014,01,10,08,43,3.50
2014,01,10,08,44,6.20
2014,01,10,08,45,5.10
2014,01,10,08,46,2.60
2014,01,10,08,47,5.20
2014,01,10,08,48,1.50
2014,01,10,08,49,1.20
2014,01,10,08,50,0.60
2014,01,10,08,51,3.90
2014,01,10,08,52,2.30
2014,01,10,08,53,3.90
2014,01,10,08,54,1.30
2014,01,10,08,55,1.90
2014,01,10,08,56,1.90
2014,01,10,08,57,4.00
2014,01,10,08,58,1.70
2014,01,10,08,59,0.00
2014,01,10,09,00,0.30
2014,01,10,09,01,0.10
2014,01,10,09,02,0.10
2014,01,10,09,03,2.30
2014,01,10,09,04,1.30
2014,01,10,09,05,3.20
2014,01,10,09,06,2.20
2014,01,10,09,07,0.10
2014,01,10,09,08,0.10
2014,01,10,09,09,3.00
2014,01,10,09,10,4.10
2014,01,10,09,11,5.70
2014,01,10,09,12,1.70
2014,01,10,09,13,7.00
2014,01,10,09,14,5.50
2014,01,10,09,15,3.50
2014,01,10,09,16,6.40
2014,01,10,09,17,3.40
2014,01,10,09,18,5.00
2014,01,10,09,19,1.90
2014,01,10,09,20,0.10
2014,01,10,09,21,3.50
2014,01,10,09,22,6.00
2014,01,10,09,23,4.00
2014,01,10,09,24,5.10
2014,01,10,09,25,5.10
2014,01,10,09,26,1.50
2014,01,10,09,27,0.00
2014,01,10,09,28,0.30
2014,01,10,09,29,0.60
2014,01,10,09,30,1.30
2014,01,10,09,31,4.70
2014,01,10,09,32,4.40
2014,01,10,09,33,0.20
2014,01,10,09,34,0.40
2014,01,10,09,35,2.80
2014,01,10,09,36,3.40
2014,01,10,09,37,3.30
2014,01,10,09,38,2.90
2014,01,10,09,39,1.50
2014,01,10,09,40,6.50
2014,01,10,09,41,4.30
2014,01,10,09,42,2.40
2014,01,10,09,43,1.40
2014,01,10,09,44,3.10
2014,01,10,09,45,4.60
2014,01,10,09,46,2.60
2014,01,10,09,47,4.10
2014,01,10,09,48,3.10
2014,01,10,09,49,5.00
2014,01,10,09,50,2.60
2014,01,10,09,51,3.90
2014,01,10,09,52,2.70
2014,01,10,09,53,2.10
2014,01,10,09,54,1.50
2014,01,10,09,55,2.80
2014,01,10,09,56,1.20
2014,01,10,09,57,3.80
2014,01,10,09,58,2.60
2014,01,10,09,59,3.20
2014,01,10,10,00,0.20
2014,01,10,10,01,1.50
2014,01,10,10,02,3.00
2014,01,10,10,03,0.60
2014,01,10,10,04,4.20
2014,01,10,10,05,3.10
2014,01,10,10,06,2.40
2014,01,10,10,07,0.80
2014,01,10,10,08,0.00
2014,01,10,10,09,1.10
2014,01,10,10,10,2.70
2014,01,10,10,11,0.70
2014,01,10,10,12,3.50
2014,01,10,10,13,5.40
2014,01,10,10,14,2.30
2014,01,10,10,15,1.00
2014,01,10,10,16,0.30
2014,01,10,10,17,1.00
2014,01,10,10,18,2.10
2014,01,10,10,19,3.10
2014,01,10,10,20,1.00
2014,01,10,10,21,2.70
2014,01,10,10,22,2.40
2014,01,10,10,23,2.20
2014,01,10,10,24,1.90
2014,01,10,10,25,1.50
2014,01,10,10,26,1.80
2014,01,10,10,27,3.10
2014,01,10,10,28,3.50
2014,01,10,10,29,3.50
2014,01,10,10,30,2.50
2014,01,10,10,31,1.10
2014,01,10,10,32,0.10
2014,01,10,10,33,2.00
2014,01,10,10,34,0.70
2014,01,10,10,35,0.60
2014,01,10,10,36,1.90
2014,01,10,10,37,1.10
2014,01,10,10,38,0.20
2014,01,10,10,39,3.30
2014,01,10,10,40,1.90
2014,01,10,10,41,0.90
2014,01,10,10,42,1.90
2014,01,10,10,43,0.10
2014,01,10,10,44,0.70
2014,01,10,10,45,0.10
2014,01,10,10,46,0.00
2014,01,10,10,47,2.30
2014,01,10,10,48,0.60
2014,01,10,10,49,1.00
2014,01,10,10,50,0.60
2014,01,10,10,51,0.30
2014,01,10,10,52,1.00
2014,01,10,10,53,1.00
2014,01,10,10,54,1.40
2014,01,10,10,55,0.20
2014,01,10,10,56,0.20
2014,01,10,10,57,0.60
2014,01,10,10,58,0.60
2014,01,10,10,59,2.50
2014,01,10,11,00,2.10
2014,01,10,11,01,0.80
2014,01,10,11,02,0.20
2014,01,10,11,03,3.20
2014,01,10,11,04,0.60
2014,01,10,11,05,1.70
2014,01,10,11,06,1.70
2014,01,10,11,07,1.90
2014,01,10,11,08,5.20
2014,01,10,11,09,3.90
2014,01,10,11,10,3.00
2014,01,10,11,11,0.00
2014,01,10,11,12,0.10
2014,01,10,11,13,0.60
2014,01,10,11,14,1.80
2014,01,10,11,15,0.90
2014,01,10,11,16,1.10
2014,01,10,11,17,0.40
2014,01,10,11,18,0.00
2014,01,10,11,19,0.70
2014,01,10,11,20,0.80
2014,01,10,11,21,1.00
2014,01,10,11,22,1.40
2014,01,10,11,23,0.50
2014,01,10,11,24,0.40
2014,01,10,11,25,0.50
2014,01,10,11,26,2.30
2014,01,10,11,27,1.20
2014,01,10,11,28,3.80
2014,01,10,11,29,1.40
2014,01,10,11,30,0.10
2014,01,10,11,31,0.50
2014,01,10,11,32,2.30
2014,01,10,11,33,0.20
2014,01,10,11,34,3.40
2014,01,10,11,35,2.00
2014,01,10,11,36,1.00
2014,01,10,11,37,0.20
2014,01,10,11,38,0.00
2014,01,10,11,39,0.10
2014,01,10,11,40,0.00
2014,01,10,11,41,0.50
2014,01,10,11,42,2.50
2014,01,10,11,43,2.10
2014,01,10,11,44,0.70
2014,01,10,11,45,0.20
2014,01,10,11,46,1.10
2014,01,10,11,47,1.50
2014,01,10,11,48,0.60
2014,01,10,11,49,0.10
2014,01,10,11,50,0.10
2014,01,10,11,51,0.20
2014,01,10,11,52,0.90
2014,01,10,11,53,0.00
2014,01,10,11,54,0.10
2014,01,10,11,55,0.10
2014,01,10,11,56,0.00
2014,01,10,11,57,0.10
2014,01,10,11,58,0.00
2014,01,10,11,59,0.10
2014,01,10,12,00,0.20
2014,01,10,12,01,0.00
2014,01,10,12,02,0.00
2014,01,10,12,03,0.00
2014,01,10,12,04,0.00
2014,01,10,12,05,0.00
2014,01,10,12,06,0.10
2014,01,10,12,07,0.20
2014,01,10,12,08,0.60
2014,01,10,12,09,0.10
2014,01,10,12,10,0.00
2014,01,10,12,11,0.00
2014,01,10,12,12,0.10
2014,01,10,12,13,0.10
2014,01,10,12,14,0.20
2014,01,10,12,15,0.00
2014,01,10,12,16,0.10
2014,01,10,12,17,0.00
2014,01,10,12,18,0.00
2014,01,10,12,19,0.00
2014,01,10,12,20,0.00
2014,01,10,12,21,0.00
2014,01,10,12,22,0.00
2014,01,10,12,23,0.20
2014,01,10,12,24,0.00
2014,01,10,12,25,0.00
2014,01,10,12,26,0.00
2014,01,10,12,27,0.00
2014,01,10,12,28,0.00
2014,01,10,12,29,0.10
2014,01,10,12,30,1.50
2014,01,10,12,31,1.10
2014,01,10,12,32,0.00
2014,01,10,12,33,0.00
2014,01,10,12,34,0.10
2014,01,10,12,35,0.00
2014,01,10,12,36,0.00
2014,01,10,12,37,0.00
2014,01,10,12,38,0.00
2014,01,10,12,39,0.30
2014,01,10,12,40,1.30
2014,01,10,12,41,1.10
2014,01,10,12,42,0.70
2014,01,10,12,43,0.10
2014,01,10,12,44,0.00
2014,01,10,12,45,0.00
2014,01,10,12,46,0.00
2014,01,10,12,47,0.00
2014,01,10,12,48,0.00
2014,01,10,12,49,0.00
2014,01,10,12,50,0.20
2014,01,10,12,51,0.10
2014,01,10,12,52,0.00
2014,01,10,12,53,0.00
2014,01,10,12,54,0.70
2014,01,10,12,55,2.20
2014,01,10,12,56,1.50
2014,01,10,12,57,0.00
2014,01,10,12,58,0.50
2014,01,10,12,59,0.10
2014,01,10,13,00,0.00
2014,01,10,13,01,0.00
2014,01,10,13,02,0.00
2014,01,10,13,03,0.10
2014,01,10,13,04,0.10
2014,01,10,13,05,0.10
2014,01,10,13,06,0.10
2014,01,10,13,07,0.00
2014,01,10,13,08,0.50
2014,01,10,13,09,0.30
2014,01,10,13,10,0.00
2014,01,10,13,11,0.00
2014,01,10,13,12,0.00
2014,01,10,13,13,1.00
2014,01,10,13,14,0.00
2014,01,10,13,15,0.00
2014,01,10,13,16,0.10
2014,01,10,13,17,0.50
2014,01,10,13,18,0.00
2014,01,10,13,19,0.00
2014,01,10,13,20,0.20
2014,01,10,13,21,0.10
2014,01,10,13,22,0.00
2014,01,10,13,23,0.00
2014,01,10,13,24,0.00
2014,01,10,13,25,0.20
2014,01,10,13,26,0.00
2014,01,10,13,27,0.10
2014,01,10,13,28,0.80
2014,01,10,13,29,0.00
2014,01,10,13,30,0.20
2014,01,10,13,31,0.00
2014,01,10,13,32,0.10
2014,01,10,13,33,0.20
2014,01,10,13,34,0.00
2014,01,10,13,35,2.50
2014,01,10,13,36,0.60
2014,01,10,13,37,0.60
2014,01,10,13,38,0.00
2014,01,10,13,39,0.00
2014,01,10,13,40,0.00
2014,01,10,13,41,0.20
2014,01,10,13,42,0.00
2014,01,10,13,43,0.00
2014,01,10,13,44,0.00
2014,01,10,13,45,0.10
2014,01,10,13,46,0.00
2014,01,10,13,47,0.00
2014,01,10,13,48,0.50
2014,01,10,13,49,0.60
2014,01,10,13,50,2.50
2014,01,10,13,51,0.50
2014,01,10,13,52,0.20
2014,01,10,13,53,0.10
2014,01,10,13,54,0.00
2014,01,10,13,55,0.00
2014,01,10,13,56,0.20
2014,01,10,13,57,1.90
2014,01,10,13,58,2.60
2014,01,10,13,59,2.40
2014,01,10,14,00,0.60
2014,01,10,14,01,0.00
2014,01,10,14,02,0.00
2014,01,10,14,03,0.00
2014,01,10,14,04,0.00
2014,01,10,14,05,0.00
2014,01,10,14,06,0.10
2014,01,10,14,07,0.10
2014,01,10,14,08,0.20
2014,01,10,14,09,0.00
2014,01,10,14,10,0.00
2014,01,10,14,11,0.10
2014,01,10,14,12,0.60
2014,01,10,14,13,3.90
2014,01,10,14,14,3.10
2014,01,10,14,15,3.40
2014,01,10,14,16,2.30
2014,01,10,14,17,0.20
2014,01,10,14,18,0.00
2014,01,10,14,19,0.00
2014,01,10,14,20,0.00
2014,01,10,14,21,0.00
2014,01,10,14,22,0.40
2014,01,10,14,23,0.30
2014,01,10,14,24,0.00
2014,01,10,14,25,0.00
2014,01,10,14,26,0.00
2014,01,10,14,27,0.00
2014,01,10,14,28,0.00
2014,01,10,14,29,0.00
2014,01,10,14,30,0.50
2014,01,10,14,31,0.00
2014,01,10,14,32,0.00
2014,01,10,14,33,0.00
2014,01,10,14,34,0.00
2014,01,10,14,35,0.00
2014,01,10,14,36,0.00
2014,01,10,14,37,0.00
2014,01,10,14,38,0.00
2014,01,10,14,39,0.00
2014,01,10,14,40,0.00
2014,01,10,14,41,0.00
2014,01,10,14,42,0.00
2014,01,10,14,43,0.00
2014,01,10,14,44,0.00
2014,01,10,14,45,0.00
2014,01,10,14,46,0.00
2014,01,10,14,47,0.00
2014,01,10,14,48,0.00
2014,01,10,14,49,0.00
2014,01,10,14,50,0.00
2014,01,10,14,51,0.00
2014,01,10,14,52,0.00
2014,01,10,14,53,0.00
2014,01,10,14,54,0.00
2014,01,10,14,55,0.00
2014,01,10,14,56,0.00
2014,01,10,14,57,0.00
2014,01,10,14,58,0.00
2014,01,10,14,59,0.00
2014,01,10,15,00,0.00
2014,01,10,15,01,0.00
2014,01,10,15,02,0.80
2014,01,10,15,03,1.40
2014,01,10,15,04,0.00
2014,01,10,15,05,0.00
2014,01,10,15,06,0.10
2014,01,10,15,07,0.00
2014,01,10,15,08,0.00
2014,01,10,15,09,0.00
2014,01,10,15,10,0.00
2014,01,10,15,11,0.00
2014,01,10,15,12,0.00
2014,01,10,15,13,0.00
2014,01,10,15,14,0.00
2014,01,10,15,15,0.00
2014,01,10,15,16,0.00
2014,01,10,15,17,0.00
2014,01,10,15,18,0.00
2014,01,10,15,19,0.20
2014,01,10,15,20,1.40
2014,01,10,15,21,1.60
2014,01,10,15,22,0.40
2014,01,10,15,23,0.00
2014,01,10,15,24,1.90
2014,01,10,15,25,0.80
2014,01,10,15,26,2.60
2014,01,10,15,27,2.70
2014,01,10,15,28,3.70
2014,01,10,15,29,0.20
2014,01,10,15,30,0.30
2014,01,10,15,31,0.80
2014,01,10,15,32,4.60
2014,01,10,15,33,0.60
2014,01,10,15,34,0.00
2014,01,10,15,35,0.80
2014,01,10,15,36,1.00
2014,01,10,15,37,0.00
2014,01,10,15,38,0.00
2014,01,10,15,39,0.00
2014,01,10,15,40,0.00
2014,01,10,15,41,0.00
2014,01,10,15,42,0.00
2014,01,10,15,43,0.00
2014,01,10,15,44,0.00
2014,01,10,15,45,0.00
2014,01,10,15,46,0.00
2014,01,10,15,47,0.00
2014,01,10,15,48,0.00
2014,01,10,15,49,0.00
2014,01,10,15,50,0.00
2014,01,10,15,51,0.80
2014,01,10,15,52,1.90
2014,01,10,15,53,0.90
2014,01,10,15,54,0.30
2014,01,10,15,55,2.10
2014,01,10,15,56,3.30
2014,01,10,15,57,3.20
2014,01,10,15,58,2.20
2014,01,10,15,59,0.00
2014,01,10,16,00,0.00
2014,01,10,16,01,0.00
2014,01,10,16,02,0.00
2014,01,10,16,03,0.00
2014,01,10,16,04,1.60
2014,01,10,16,05,1.20
2014,01,10,16,06,0.50
2014,01,10,16,07,2.60
2014,01,10,16,08,0.30
2014,01,10,16,09,0.00
2014,01,10,16,10,0.00
2014,01,10,16,11,0.10
2014,01,10,16,12,0.00
2014,01,10,16,13,0.10
2014,01,10,16,14,0.00
2014,01,10,16,15,0.10
2014,01,10,16,16,0.10
2014,01,10,16,17,0.10
2014,01,10,16,18,0.00
2014,01,10,16,19,0.00
2014,01,10,16,20,0.20
2014,01,10,16,21,2.00
2014,01,10,16,22,0.20
2014,01,10,16,23,0.00
2014,01,10,16,24,0.00
2014,01,10,16,25,0.10
2014,01,10,16,26,0.00
2014,01,10,16,27,0.00
2014,01,10,16,28,0.10
2014,01,10,16,29,0.40
2014,01,10,16,30,2.00
2014,01,10,16,31,1.90
2014,01,10,16,32,0.00
2014,01,10,16,33,0.00
2014,01,10,16,34,0.10
2014,01,10,16,35,0.00
2014,01,10,16,36,1.70
2014,01,10,16,37,2.30
2014,01,10,16,38,0.20
2014,01,10,16,39,0.00
2014,01,10,16,40,0.60
2014,01,10,16,41,1.00
2014,01,10,16,42,1.60
2014,01,10,16,43,0.20
2014,01,10,16,44,0.00
2014,01,10,16,45,0.00
2014,01,10,16,46,0.10
2014,01,10,16,47,1.70
2014,01,10,16,48,2.40
2014,01,10,16,49,1.60
2014,01,10,16,50,1.90
2014,01,10,16,51,5.10
2014,01,10,16,52,1.00
2014,01,10,16,53,3.50
2014,01,10,16,54,1.50
2014,01,10,16,55,2.20
2014,01,10,16,56,4.40
2014,01,10,16,57,1.90
2014,01,10,16,58,0.30
2014,01,10,16,59,1.60
2014,01,10,17,00,0.90
2014,01,10,17,01,1.10
2014,01,10,17,02,0.10
2014,01,10,17,03,0.20
2014,01,10,17,04,0.00
2014,01,10,17,05,0.00
2014,01,10,17,06,0.70
2014,01,10,17,07,3.90
2014,01,10,17,08,1.90
2014,01,10,17,09,3.90
2014,01,10,17,10,1.80
2014,01,10,17,11,1.90
2014,01,10,17,12,0.20
2014,01,10,17,13,0.10
2014,01,10,17,14,2.80
2014,01,10,17,15,3.00
2014,01,10,17,16,3.80
2014,01,10,17,17,2.90
2014,01,10,17,18,1.00
2014,01,10,17,19,0.00
2014,01,10,17,20,0.00
2014,01,10,17,21,0.00
2014,01,10,17,22,1.10
2014,01,10,17,23,1.50
2014,01,10,17,24,2.20
2014,01,10,17,25,1.70
2014,01,10,17,26,1.70
2014,01,10,17,27,1.70
2014,01,10,17,28,1.80
2014,01,10,17,29,0.20
2014,01,10,17,30,0.30
2014,01,10,17,31,4.10
2014,01,10,17,32,2.60
2014,01,10,17,33,3.20
2014,01,10,17,34,4.10
2014,01,10,17,35,0.20
2014,01,10,17,36,1.50
2014,01,10,17,37,1.60
2014,01,10,17,38,3.10
2014,01,10,17,39,1.80
2014,01,10,17,40,4.70
2014,01,10,17,41,0.60
2014,01,10,17,42,2.30
2014,01,10,17,43,1.90
2014,01,10,17,44,2.70
2014,01,10,17,45,4.10
2014,01,10,17,46,4.60
2014,01,10,17,47,4.70
2014,01,10,17,48,2.60
2014,01,10,17,49,0.60
2014,01,10,17,50,0.00
2014,01,10,17,51,2.20
2014,01,10,17,52,2.00
2014,01,10,17,53,3.50
2014,01,10,17,54,3.40
2014,01,10,17,55,0.30
2014,01,10,17,56,0.30
2014,01,10,17,57,0.50
2014,01,10,17,58,1.50
2014,01,10,17,59,4.70
2014,01,10,18,00,2.70
2014,01,10,18,01,1.90
2014,01,10,18,02,0.70
2014,01,10,18,03,1.10
2014,01,10,18,04,0.20
2014,01,10,18,05,0.20